• In Switzerland
  • List of Countries
  • For 7 days
  • Water Temperature
  • Satellite Maps
  • Weather Map
  • Weather Widgets
  • user-avatar
    Login

    Hourly Weather Bakhtaran

    Today, 23 October, Tuesday

    Time Temperature Precipitation Wind Pressure Humidity
    00:00 +14°C° 0 mm 1 mps 640 mmHg 64%
    01:00 +14°C° 0 mm 1 mps 640 mmHg 63%
    02:00 +13°C° 0 mm 0 mps 640 mmHg 65%
    03:00 +12°C° 0 mm 0 mps 640 mmHg 70%
    04:00 +12°C° 0 mm 0 mps 639 mmHg 72%
    05:00 +11°C° 0 mm 0 mps 639 mmHg 74%
    06:00 +11°C° 0 mm 0 mps 639 mmHg 76%
    07:00 +13°C° 0 mm 0 mps 640 mmHg 68%
    08:00 +15°C° 0 mm 1 mps 641 mmHg 61%
    09:00 +18°C° 0 mm 1 mps 642 mmHg 55%
    10:00 +18°C° 0 mm 2 mps 642 mmHg 48%
    11:00 +19°C° 0 mm 2 mps 642 mmHg 42%
    12:00 +20°C° 0 mm 3 mps 642 mmHg 35%
    13:00 +21°C° 0 mm 3 mps 641 mmHg 33%
    14:00 +21°C° 0 mm 3 mps 641 mmHg 31%
    15:00 +21°C° 0 mm 3 mps 641 mmHg 33%
    16:00 +20°C° 0 mm 3 mps 641 mmHg 36%
    17:00 +19°C° 0 mm 2 mps 641 mmHg 39%
    18:00 +19°C° 0 mm 1 mps 640 mmHg 42%
    19:00 +18°C° 0 mm 1 mps 640 mmHg 45%
    20:00 +16°C° 0 mm 1 mps 640 mmHg 48%
    21:00 +15°C° 0 mm 1 mps 640 mmHg 51%
    22:00 +15°C° 0 mm 1 mps 640 mmHg 54%
    23:00 +14°C° 0 mm 1 mps 639 mmHg 56%

    Tomorrow, 24 October, Wednesday

    Time Temperature Precipitation Wind Pressure Humidity
    00:00 +14°C° 0 mm 1 mps 639 mmHg 59%
    01:00 +13°C° 0 mm 0 mps 639 mmHg 60%
    02:00 +12°C° 0 mm 0 mps 639 mmHg 62%
    03:00 +12°C° 0 mm 0 mps 638 mmHg 64%
    04:00 +12°C° 0 mm 0 mps 638 mmHg 65%
    05:00 +11°C° 0 mm 0 mps 638 mmHg 65%
    06:00 +11°C° 0 mm 0 mps 638 mmHg 66%
    07:00 +13°C° 0 mm 0 mps 639 mmHg 58%
    08:00 +16°C° 0 mm 1 mps 640 mmHg 50%
    09:00 +19°C° 0 mm 1 mps 640 mmHg 42%
    10:00 +19°C° 0 mm 2 mps 640 mmHg 37%
    11:00 +21°C° 0 mm 2 mps 641 mmHg 33%
    12:00 +22°C° 0 mm 3 mps 641 mmHg 29%
    13:00 +24°C° 0 mm 3 mps 640 mmHg 28%
    14:00 +23°C° 0 mm 4 mps 640 mmHg 26%
    15:00 +25°C° 0 mm 4 mps 640 mmHg 25%
    16:00 +22°C° 0 mm 3 mps 640 mmHg 28%
    17:00 +21°C° 0 mm 2 mps 639 mmHg 31%
    18:00 +19°C° 0 mm 2 mps 639 mmHg 33%
    19:00 +20°C° 0 mm 1 mps 639 mmHg 35%
    20:00 +19°C° 0 mm 1 mps 639 mmHg 37%
    21:00 +18°C° 0 mm 1 mps 638 mmHg 39%
    22:00 +18°C° 0 mm 1 mps 638 mmHg 40%
    23:00 +16°C° 0 mm 1 mps 638 mmHg 41%

    Day after tomorrow, 25 October, Thursday

    Time Temperature Precipitation Wind Pressure Humidity
    00:00 +16°C° 0 mm 1 mps 638 mmHg 43%
    01:00 +16°C° 0 mm 1 mps 637 mmHg 43%
    02:00 +15°C° 0 mm 1 mps 637 mmHg 44%
    03:00 +15°C° 0 mm 1 mps 637 mmHg 45%
    04:00 +15°C° 0 mm 1 mps 637 mmHg 46%
    05:00 +15°C° 0 mm 1 mps 637 mmHg 47%
    06:00 +14°C° 0 mm 1 mps 637 mmHg 48%
    07:00 +16°C° 0 mm 2 mps 638 mmHg 43%
    08:00 +18°C° 0 mm 3 mps 638 mmHg 38%
    09:00 +20°C° 0 mm 3 mps 639 mmHg 33%
    10:00 +21°C° 0 mm 4 mps 639 mmHg 31%
    11:00 +23°C° 0 mm 5 mps 639 mmHg 30%
    12:00 +24°C° 0 mm 6 mps 639 mmHg 29%
    13:00 +24°C° 0 mm 7 mps 638 mmHg 29%
    14:00 +24°C° 0 mm 7 mps 638 mmHg 29%
    15:00 +24°C° 0 mm 8 mps 638 mmHg 28%
    16:00 +23°C° 0 mm 7 mps 638 mmHg 32%
    17:00 +21°C° 0 mm 5 mps 637 mmHg 36%
    18:00 +20°C° 0 mm 4 mps 637 mmHg 39%
    19:00 +19°C° 0.1 mm 4 mps 637 mmHg 41%
    20:00 +18°C° 0.1 mm 4 mps 637 mmHg 42%
    21:00 +17°C° 0.1 mm 3 mps 637 mmHg 44%
    22:00 +17°C° 0 mm 4 mps 636 mmHg 45%
    23:00 +17°C° 0 mm 4 mps 636 mmHg 46%

    26 October, Friday

    Time Temperature Precipitation Wind Pressure Humidity
    00:00 +17°C° 0 mm 4 mps 636 mmHg 47%
    01:00 +15°C° 0.2 mm 4 mps 636 mmHg 49%
    02:00 +15°C° 0.2 mm 4 mps 636 mmHg 51%
    03:00 +15°C° 0.2 mm 4 mps 636 mmHg 53%
    04:00 +14°C° 1 mm 4 mps 636 mmHg 58%
    05:00 +14°C° 1 mm 4 mps 636 mmHg 64%
    06:00 +14°C° 1 mm 5 mps 636 mmHg 69%
    07:00 +14°C° 1.4 mm 5 mps 637 mmHg 69%
    08:00 +15°C° 1.4 mm 5 mps 637 mmHg 70%
    09:00 +15°C° 1.4 mm 6 mps 637 mmHg 70%
    10:00 +15°C° 2.2 mm 5 mps 637 mmHg 72%
    11:00 +14°C° 2.2 mm 5 mps 637 mmHg 75%
    12:00 +14°C° 2.2 mm 4 mps 637 mmHg 77%
    13:00 +15°C° 0.6 mm 4 mps 637 mmHg 74%
    14:00 +15°C° 0.6 mm 5 mps 637 mmHg 72%
    15:00 +15°C° 0.6 mm 5 mps 637 mmHg 70%
    16:00 +15°C° 0.3 mm 4 mps 637 mmHg 72%
    17:00 +14°C° 0.3 mm 4 mps 637 mmHg 74%
    18:00 +14°C° 0.3 mm 4 mps 637 mmHg 76%
    19:00 +14°C° 0.2 mm 4 mps 637 mmHg 79%
    20:00 +13°C° 0.2 mm 3 mps 637 mmHg 82%
    21:00 +13°C° 0.2 mm 3 mps 638 mmHg 86%
    22:00 +13°C° 0.3 mm 3 mps 638 mmHg 86%
    23:00 +12°C° 0.3 mm 3 mps 638 mmHg 86%

    27 October, Saturday

    Time Temperature Precipitation Wind Pressure Humidity
    00:00 +13°C° 0.3 mm 2 mps 638 mmHg 87%
    01:00 +13°C° 0.1 mm 2 mps 638 mmHg 87%
    02:00 +13°C° 0.1 mm 2 mps 638 mmHg 88%
    03:00 +13°C° 0.1 mm 2 mps 638 mmHg 88%
    04:00 +13°C° 0.1 mm 1 mps 638 mmHg 88%
    05:00 +13°C° 0.1 mm 1 mps 638 mmHg 87%
    06:00 +13°C° 0.1 mm 1 mps 639 mmHg 86%
    07:00 +14°C° 0.1 mm 1 mps 639 mmHg 78%
    08:00 +15°C° 0.1 mm 2 mps 640 mmHg 69%
    09:00 +17°C° 0.1 mm 2 mps 641 mmHg 60%
    10:00 +17°C° 0 mm 2 mps 641 mmHg 55%
    11:00 +18°C° 0 mm 2 mps 641 mmHg 49%
    12:00 +19°C° 0 mm 2 mps 641 mmHg 43%
    13:00 +19°C° 0 mm 2 mps 641 mmHg 43%
    14:00 +19°C° 0 mm 2 mps 641 mmHg 42%
    15:00 +20°C° 0 mm 1 mps 641 mmHg 41%
    16:00 +20°C° 0 mm 1 mps 641 mmHg 43%
    17:00 +19°C° 0 mm 1 mps 641 mmHg 45%
    18:00 +17°C° 0 mm 0 mps 641 mmHg 48%
    19:00 +16°C° 0 mm 0 mps 641 mmHg 50%
    20:00 +16°C° 0 mm 1 mps 641 mmHg 53%
    21:00 +16°C° 0 mm 1 mps 641 mmHg 55%
    22:00 +15°C° 0 mm 1 mps 640 mmHg 57%
    23:00 +15°C° 0 mm 1 mps 640 mmHg 58%

    28 October, Sunday

    Time Temperature Precipitation Wind Pressure Humidity
    00:00 +14°C° 0 mm 1 mps 640 mmHg 59%
    01:00 +14°C° 0 mm 1 mps 640 mmHg 60%
    02:00 +14°C° 0 mm 1 mps 640 mmHg 62%
    03:00 +13°C° 0 mm 1 mps 640 mmHg 63%
    04:00 +13°C° 0 mm 1 mps 640 mmHg 63%
    05:00 +13°C° 0 mm 1 mps 640 mmHg 64%
    06:00 +12°C° 0 mm 1 mps 640 mmHg 64%
    07:00 +14°C° 0 mm 1 mps 641 mmHg 58%
    08:00 +15°C° 0 mm 1 mps 642 mmHg 52%
    09:00 +18°C° 0 mm 1 mps 642 mmHg 46%
    10:00 +19°C° 0 mm 1 mps 642 mmHg 42%
    11:00 +19°C° 0 mm 2 mps 642 mmHg 37%
    12:00 +20°C° 0 mm 2 mps 642 mmHg 33%
    13:00 +20°C° 0 mm 2 mps 642 mmHg 31%
    14:00 +22°C° 0 mm 1 mps 642 mmHg 29%
    15:00 +22°C° 0 mm 1 mps 642 mmHg 26%
    16:00 +21°C° 0 mm 1 mps 642 mmHg 29%
    17:00 +20°C° 0 mm 1 mps 642 mmHg 32%
    18:00 +19°C° 0 mm 1 mps 642 mmHg 35%
    19:00 +18°C° 0 mm 1 mps 641 mmHg 37%
    20:00 +18°C° 0 mm 1 mps 641 mmHg 38%
    21:00 +15°C° 0 mm 0 mps 641 mmHg 39%
    22:00 +16°C° 0 mm 1 mps 641 mmHg 40%
    23:00 +15°C° 0 mm 1 mps 641 mmHg 41%

    29 October, Monday

    Time Temperature Precipitation Wind Pressure Humidity
    00:00 +15°C° 0 mm 1 mps 641 mmHg 42%
    01:00 +14°C° 0 mm 1 mps 641 mmHg 43%
    02:00 +14°C° 0 mm 1 mps 641 mmHg 44%
    03:00 +14°C° 0 mm 1 mps 641 mmHg 46%
    04:00 +13°C° 0 mm 1 mps 641 mmHg 48%
    05:00 +13°C° 0 mm 1 mps 641 mmHg 49%
    06:00 +12°C° 0 mm 1 mps 641 mmHg 51%
    07:00 +14°C° 0 mm 1 mps 642 mmHg 48%
    08:00 +15°C° 0 mm 2 mps 642 mmHg 44%
    09:00 +17°C° 0 mm 2 mps 643 mmHg 41%
    10:00 +18°C° 0 mm 2 mps 643 mmHg 38%
    11:00 +19°C° 0 mm 2 mps 643 mmHg 35%
    12:00 +20°C° 0 mm 2 mps 643 mmHg 33%
    13:00 +20°C° 0 mm 2 mps 643 mmHg 31%
    14:00 +21°C° 0 mm 2 mps 643 mmHg 30%
    15:00 +22°C° 0 mm 1 mps 642 mmHg 28%
    16:00 +21°C° 0 mm 1 mps 642 mmHg 31%
    17:00 +20°C° 0 mm 1 mps 642 mmHg 34%
    18:00 +19°C° 0 mm 1 mps 642 mmHg 37%
    19:00 +19°C° 0 mm 1 mps 642 mmHg 39%
    20:00 +18°C° 0 mm 1 mps 642 mmHg 40%
    21:00 +18°C° 0 mm 1 mps 642 mmHg 41%
    22:00 +16°C° 0 mm 1 mps 642 mmHg 43%
    23:00 +16°C° 0 mm 1 mps 641 mmHg 44%
    Show more